Location: Unspecified
(58.7730°N, 5.8460°E)
Time: 17:57:11
(UTC+02:00)

Cosmos 1674 - Visible Passes

Search period start: 30 August 2015 00:00
Search period end: 09 September 2015 00:00
Orbit: 506 x 529 km, 82.5° (Epoch: 29 August)

Date Brightness Start Highest point End Pass type
(mag) Time Alt. Az. Time Alt. Az. Time Alt. Az.
30 Aug 2.7 00:59:36 10° NNW 01:03:32 72° W 01:03:40 71° WSW visible
30 Aug 5.2 02:37:10 10° WNW 02:38:37 12° W 02:38:43 12° W visible
30 Aug 4.7 23:10:10 10° NNE 23:12:50 18° NE 23:14:19 15° E visible
31 Aug 2.6 00:45:16 10° NNW 00:49:13 82° W 00:49:22 80° SW visible
31 Aug 5.1 02:22:28 10° NW 02:24:23 13° W 02:24:25 13° W visible
31 Aug 4.8 22:55:59 10° NNE 22:58:26 16° NE 23:00:00 13° E visible
01 Sep 2.6 00:30:56 10° NNW 00:34:53 87° ENE 00:35:03 81° SSE visible
01 Sep 5.0 02:07:51 10° NW 02:10:06 15° W 02:10:06 15° W visible
01 Sep 4.9 22:41:49 10° NNE 22:44:00 15° NE 22:45:42 12° E visible
02 Sep 2.6 00:16:37 10° NNW 00:20:33 77° ENE 00:20:45 74° ESE visible
02 Sep 4.9 01:53:18 10° NW 01:55:48 17° W 01:55:48 17° W visible
02 Sep 5.0 22:27:40 10° NNE 22:29:34 13° NE 22:31:24 10° E visible
03 Sep 2.7 00:02:17 10° N 00:06:12 67° ENE 00:06:27 65° E visible
03 Sep 4.8 01:38:48 10° NW 01:41:30 19° W 01:41:30 19° W visible
03 Sep 5.1 22:13:37 10° NNE 22:15:07 12° NE 22:16:44 10° ENE visible
03 Sep 2.8 23:47:57 10° N 23:51:50 59° ENE 23:52:09 56° E visible
04 Sep 4.6 01:24:19 10° NW 01:27:12 21° W 01:27:12 21° W visible
04 Sep 5.1 21:59:41 10° NNE 22:00:40 11° NE 22:01:45 10° ENE visible
04 Sep 3.0 23:33:38 10° N 23:37:28 51° ENE 23:37:51 49° E visible
05 Sep 4.5 01:09:51 10° NW 01:12:54 23° W 01:12:54 23° W visible
05 Sep 3.2 23:19:18 10° N 23:23:05 45° ENE 23:23:34 43° E visible
06 Sep 4.3 00:55:24 10° NNW 00:58:37 26° W 00:58:37 26° W visible
06 Sep 3.4 23:04:59 10° N 23:08:41 40° ENE 23:09:16 37° E visible
07 Sep 4.1 00:40:57 10° NNW 00:44:19 29° W 00:44:19 29° W visible
07 Sep 3.5 22:50:40 10° N 22:54:17 35° ENE 22:54:59 32° E visible
08 Sep 4.0 00:26:31 10° NNW 00:30:02 33° W 00:30:02 33° W visible
08 Sep 3.7 22:36:21 10° N 22:39:52 31° ENE 22:40:42 28° E visible
